Weather History for Banff, AB

Change the Weather History Date:

Thursday, March 28, 2013

  Actual Average Record
Temperature  
Mean Temperature 36 °F -  
Max Temperature 49 °F - - ()
Min Temperature 23 °F - - ()
Degree Days  
Heating Degree Days 29    
Moisture  
Dew Point 17 °F    
Average Humidity 53    
Maximum Humidity 78    
Minimum Humidity 26    
Precipitation  
Precipitation 0.01 in - - ()
Sea Level Pressure  
Sea Level Pressure 30.10 in    
Wind  
Wind Speed 3 mph ()    
Max Wind Speed 9 mph    
Max Gust Speed 17 mph    
T = Trace of Precipitation, MM = Missing Value Source: Averaged Metar Reports

Daily Weather History Graph

Daily Weather History Graph

Search for Another Location

Airport:

Trip Planner

Search our weather history database for the weather conditions in past years. The results will help you decide how hot, cold, wet, or windy it might be!

Date:

Astronomy

Mar. 28, 2013 Rise Set
Actual Time 7:25 AM MDT 8:09 PM MDT
Civil Twilight 6:52 AM MDT 8:42 PM MDT
Nautical Twilight 6:12 AM MDT 9:22 PM MDT
Astronomical Twilight 5:30 AM MDT 10:05 PM MDT
Moon 10:24 PM MDT (3/28) 7:43 AM MDT (3/28)
Length of Visible Light 13h 50m
Length of Day
12h 43m
Full, 98% of the Moon is Illuminated
Mar 28
Full
Apr 2
Last Quarter
Apr 10
New
Apr 18
First Quarter
Apr 25
Full

Hourly Weather History & Observations

Time (MDT) Temp. Windchill Dew Point Humidity Pressure Visibility Wind Dir Wind Speed Gust Speed Precip Events Conditions
12:00 AM 24.6 °F - 18.3 °F 77% 30.10 in - Calm Calm - 0.04 in   Unknown
1:00 AM 25.3 °F - 19.0 °F 77% 30.11 in - WNW 1.2 mph - N/A   Unknown
2:00 AM 23.9 °F - 18.0 °F 78% 30.11 in - Calm Calm - N/A   Unknown
3:00 AM 24.1 °F - 18.0 °F 77% 30.11 in - Calm Calm - N/A   Unknown
4:00 AM 25.0 °F 19.3 °F 18.1 °F 75% 30.11 in - SW 4.6 mph - N/A   Unknown
5:00 AM 25.2 °F - 18.0 °F 74% 30.11 in - Calm Calm - 0.01 in   Unknown
6:00 AM 26.1 °F - 18.0 °F 71% 30.11 in - WNW 1.2 mph - N/A   Unknown
7:00 AM 25.7 °F 20.1 °F 17.8 °F 72% 30.14 in - SW 4.6 mph - N/A   Unknown
8:00 AM 25.2 °F - 16.9 °F 71% 30.16 in - WSW 2.3 mph - N/A   Unknown
9:00 AM 28.4 °F 23.3 °F 16.9 °F 62% 30.17 in - SW 4.6 mph - N/A   Unknown
10:00 AM 31.8 °F 24.6 °F 17.1 °F 55% 30.15 in - SW 8.1 mph - N/A   Unknown
11:00 AM 38.5 °F 33.4 °F 16.9 °F 42% 30.12 in - SW 6.9 mph - N/A   Unknown
12:00 PM 44.8 °F 40.4 °F 18.1 °F 34% 30.08 in - SW 8.1 mph - N/A   Unknown
1:00 PM 47.3 °F - 17.6 °F 31% 30.07 in - SW 8.1 mph - N/A   Unknown
2:00 PM 49.1 °F - 16.9 °F 28% 30.05 in - SW 9.2 mph - N/A   Unknown
3:00 PM 48.7 °F - 14.5 °F 26% 30.04 in - WSW 9.2 mph 17.3 mph N/A   Unknown
4:00 PM 47.7 °F - 16.5 °F 29% 30.05 in - WSW 8.1 mph - N/A   Unknown
5:00 PM 48.2 °F - 14.2 °F 26% 30.04 in - SW 9.2 mph - N/A   Unknown
6:00 PM 47.5 °F - 16.0 °F 28% 30.05 in - SW 8.1 mph - N/A   Unknown
7:00 PM 45.7 °F 42.7 °F 13.8 °F 28% 30.06 in - West 5.8 mph - N/A   Unknown
8:00 PM 42.1 °F 40.2 °F 17.2 °F 37% 30.07 in - WSW 3.5 mph - N/A   Unknown
9:00 PM 35.1 °F - 17.8 °F 49% 30.10 in - SW 2.3 mph - N/A   Unknown
10:00 PM 31.5 °F - 18.9 °F 60% 30.10 in - Calm Calm - N/A   Unknown
11:00 PM 26.2 °F - 17.8 °F 70% 30.11 in - East 1.2 mph - N/A   Unknown